FW9082 Weather Reports


time (UTC)temp
C
wind
direction
speed
KPH
gust
KPH
rain 1hr
cm
rain 24hr
cm
rain mn
cm
humidity
%
barometer
mb
20260507030032 17 0 0.0 0.0 0.00 0.20 0.20 90 1009.2
20260507024533 18 0 0.0 0.0 0.00 0.20 0.20 89 1008.9
20260507023030 18 0 0.0 0.0 0.00 0.20 0.20 88 1009.1
20260507021533 18 0 0.0 0.0 0.00 0.20 0.20 88 1008.8
20260507020040 18 0 0.0 3.2 0.00 0.20 0.20 88 1009.3
20260507014533 18 232 0.0 1.6 0.00 0.20 0.20 88 1009.4
20260507013031 18 0 0.0 1.6 0.00 0.20 0.20 88 1009.4
20260507011532 18 0 0.0 1.6 0.00 0.20 0.20 88 1009.1
20260507010037 18 0 0.0 1.6 0.00 0.20 0.20 87 1009.1
20260507004534 18 0 0.0 3.2 0.00 0.20 0.20 86 1008.8
20260507003032 18 0 0.0 1.6 0.00 0.20 0.20 86 1008.9
20260507001537 18 146 0.0 4.8 0.00 0.20 0.20 87 1009.1
20260507000030 18 205 0.0 1.6 0.00 0.20 0.20 86 1008.6
20260506234531 19 269 0.0 4.8 0.00 0.20 0.20 85 1008.4
20260506233033 19 241 0.0 4.8 0.00 0.20 0.20 84 1008.4
20260506231530 20 0 0.0 6.4 0.00 0.20 0.20 83 1008.4
20260506230032 20 0 1.6 6.4 0.00 0.20 0.20 83 1008.5
20260506224533 20 0 0.0 9.7 0.00 0.20 0.20 82 1008.6
20260506223033 21 256 1.6 8.0 0.00 0.20 0.20 80 1008.5
20260506221529 21 105 1.6 9.7 0.00 0.20 0.20 80 1008.3
20260506220036 21 240 3.2 14.5 0.00 0.20 0.20 79 1008.2
20260506214531 21 277 3.2 11.3 0.00 0.20 0.20 79 1008.2
20260506213034 21 245 3.2 9.7 0.00 0.20 0.20 79 1008.0
20260506211534 21 272 3.2 12.9 0.00 0.20 0.20 80 1008.1
20260506210033 21 297 3.2 8.0 0.00 0.20 0.20 78 1008.1
20260506204531 21 264 4.8 14.5 0.00 0.20 0.20 78 1008.0
20260506203033 21 235 6.4 11.3 0.00 0.20 0.20 78 1007.9
20260506201532 20 149 4.8 11.3 0.00 0.20 0.20 79 1007.9
20260506200033 21 172 6.4 19.3 0.00 0.20 0.20 78 1008.0
20260506194532 21 283 4.8 12.9 0.00 0.20 0.20 81 1008.1
20260506193033 20 282 3.2 12.9 0.00 0.20 0.20 80 1008.2
20260506191535 20 276 6.4 17.7 0.00 0.20 0.20 82 1008.5
20260506190033 19 323 4.8 17.7 0.00 0.20 0.20 83 1008.8
20260506184533 18 227 4.8 16.1 0.00 0.20 0.20 84 1008.7
20260506183032 18 209 3.2 19.3 0.00 0.20 0.20 84 1008.9
20260506181533 18 265 4.8 17.7 0.00 0.20 0.20 84 1008.9
20260506180036 18 282 3.2 19.3 0.00 0.20 0.20 85 1009.0
20260506174535 18 237 4.8 16.1 0.00 0.20 0.20 85 1009.1
20260506173032 18 195 4.8 17.7 0.00 0.20 0.20 85 1009.0
20260506171549 18 212 4.8 12.9 0.00 0.20 0.20 86 1009.2
20260506170037 17 143 0.0 9.7 0.03 0.20 0.20 89 1009.2
20260506164535 17 296 1.6 11.3 0.08 0.20 0.20 89 1009.3
20260506163040 17 284 3.2 11.3 0.13 0.20 0.20 90 1009.4
20260506161532 17 272 3.2 12.9 0.15 0.20 0.20 91 1009.7
20260506160033 17 201 3.2 9.7 0.15 0.18 0.18 90 1009.6
20260506154534 17 181 1.6 9.7 0.13 0.13 0.13 87 1010.2
20260506153028 17 242 1.6 14.5 0.08 0.08 0.08 85 1010.7
20260506151536 17 181 3.2 16.1 0.05 0.05 0.05 84 1010.6
20260506150033 18 228 4.8 12.9 0.03 0.03 0.03 82 1010.4
20260506144530 18 141 4.8 14.5 0.00 0.00 0.00 77 1010.5
20260506143032 19 272 4.8 16.1 0.00 0.00 0.00 75 1010.6
20260506141533 19 245 3.2 22.5 0.00 0.00 0.00 74 1010.6
20260506140034 19 182 4.8 16.1 0.00 0.00 0.00 73 1010.5
20260506134532 20 208 6.4 17.7 0.00 0.00 0.00 71 1010.4
20260506133042 20 255 8.0 19.3 0.00 0.00 0.00 69 1010.1
20260506131531 20 293 3.2 16.1 0.00 0.00 0.00 72 1010.2
20260506130030 19 245 4.8 12.9 0.00 0.00 0.00 72 1010.3
20260506124532 19 174 3.2 19.3 0.00 0.00 0.00 74 1010.5
20260506123032 18 276 3.2 14.5 0.00 0.00 0.00 74 1010.5
20260506121531 18 233 3.2 16.1 0.00 0.00 0.00 75 1010.4
20260506120037 18 223 4.8 16.1 0.00 0.00 0.00 76 1010.3
20260506114531 18 223 4.8 16.1 0.00 0.00 0.00 76 1010.4
20260506113040 18 217 3.2 12.9 0.00 0.00 0.00 79 1010.0
20260506111529 18 143 4.8 14.5 0.00 0.00 0.00 79 1010.0
20260506110033 17 221 3.2 12.9 0.00 0.00 0.00 80 1010.1
20260506104537 18 186 3.2 8.0 0.00 0.00 0.00 80 1009.9
20260506103037 17 259 3.2 11.3 0.00 0.00 0.00 80 1010.1
20260506101544 17 221 1.6 9.7 0.00 0.00 0.00 81 1010.3
20260506100033 17 334 3.2 14.5 0.00 0.00 0.00 81 1010.1
20260506094529 17 210 3.2 11.3 0.00 0.00 0.00 82 1009.9
20260506093028 17 195 1.6 8.0 0.00 0.00 0.00 82 1010.2
20260506091532 17 188 3.2 16.1 0.00 0.00 0.00 81 1010.2
20260506090033 17 150 1.6 8.0 0.00 0.00 0.00 81 1010.1
20260506084538 17 226 1.6 16.1 0.00 0.00 0.00 80 1010.1
20260506083033 18 229 4.8 11.3 0.00 0.00 0.00 80 1009.9
20260506081533 18 236 3.2 11.3 0.00 0.00 0.00 79 1010.1
20260506073029 18 271 3.2 11.3 0.00 0.00 0.00 77 1010.4
20260506071528 19 145 4.8 14.5 0.00 0.00 0.00 77 1010.2
20260506061531 19 269 3.2 11.3 0.00 0.00 0.00 75 1010.5
20260506044530 20 257 4.8 9.7 0.00 0.00 0.00 75 1010.9
20260506043030 20 172 1.6 9.7 0.00 0.00 0.00 73 1011.1
20260506041533 20 251 3.2 9.7 0.00 0.00 0.00 71 1011.0
20260506040039 20 243 3.2 9.7 0.00 0.00 0.00 70 1011.1
20260506034530 20 302 1.6 9.7 0.00 0.00 0.00 68 1011.0
20260506033033 20 202 1.6 9.7 0.00 0.00 0.00 67 1010.9
20260506031535 20 195 3.2 12.9 0.00 0.00 0.00 66 1011.0